Change the Weather History Date:

Wednesday, April 17, 2013

  Actual Average Record
Temperature  
Mean Temperature 38 °F 39 °F  
Max Temperature 50 °F 51 °F 84 °F (2002)
Min Temperature 26 °F 27 °F 10 °F (2014)
Degree Days  
Heating Degree Days 27 26  
Month to date heating degree days 528 507  
Since 1 July heating degree days 8046 8469  
Cooling Degree Days 0 0  
Month to date cooling degree days 0 0  
Year to date cooling degree days 0 0  
Moisture  
Dew Point 28 °F    
Average Humidity 70    
Maximum Humidity 100    
Minimum Humidity 39    
Precipitation  
Precipitation 0.00 in 0.09 in 0.74 in (1993)
Month to date precipitation 1.65 1.58  
Year to date precipitation 4.39 7.60  
Sea Level Pressure  
Sea Level Pressure 30.27 in    
Wind  
Wind Speed 3 mph (NNW)    
Max Wind Speed 12 mph    
Max Gust Speed 18 mph    
Visibility 10 miles    
Events      
T = Trace of Precipitation, MM = Missing Value Source: NWS Daily Summary

Daily Weather History Graph

Daily Weather History Graph

Search for Another Location

Airport or City:

Trip Planner

Search our weather history database for the weather conditions in past years. The results will help you decide how hot, cold, wet, or windy it might be!

Date:

Astronomy

Apr. 17, 2013 Rise Set
Actual Time 6:09 AM EDT 7:44 PM EDT
Civil Twilight 5:38 AM EDT 8:14 PM EDT
Nautical Twilight 5:01 AM EDT 8:51 PM EDT
Astronomical Twilight 4:22 AM EDT 9:31 PM EDT
Moon 11:16 AM EDT (4/17) 1:25 AM EDT (4/17)
Length of Visible Light 14h 35m
Length of Day
13h 34m
Waxing Crescent, 42% of the Moon is Illuminated
Apr 17
Waxing Crescent
Apr 18
First Quarter
Apr 25
Full
May 2
Last Quarter
May 9
New

Hourly Weather History & Observations

Time (EDT) Temp. Windchill Dew Point Humidity Pressure Visibility Wind Dir Wind Speed Gust Speed Precip Events Conditions
12:51 AM 39.9 °F 36.7 °F 34.0 °F 79% 30.14 in 10.0 mi Variable 4.6 mph - N/A   Overcast
1:51 AM 37.9 °F 35.5 °F 32.0 °F 79% 30.15 in 10.0 mi Variable 3.5 mph - N/A   Scattered Clouds
2:51 AM 36.0 °F - 30.0 °F 79% 30.17 in 10.0 mi Calm Calm - N/A   Clear
3:51 AM 28.9 °F 25.2 °F 28.9 °F 100% 30.18 in 10.0 mi South 3.5 mph - N/A   Clear
4:51 AM 30.9 °F - 28.9 °F 92% 30.19 in 10.0 mi Calm Calm - N/A   Clear
5:51 AM 28.9 °F - 28.0 °F 96% 30.22 in 5.0 mi Calm Calm - N/A   Clear
6:51 AM 33.1 °F - 30.0 °F 89% 30.23 in 10.0 mi Calm Calm - N/A   Clear
7:51 AM 36.0 °F 31.1 °F 30.0 °F 79% 30.27 in 10.0 mi Variable 5.8 mph - N/A   Clear
8:47 AM 37.4 °F 33.8 °F 30.2 °F 75% 30.24 in 10.0 mi NW 4.6 mph - N/A   Mostly Cloudy
8:51 AM 37.0 °F - 30.0 °F 76% 30.27 in 10.0 mi Calm Calm - N/A   Mostly Cloudy
9:48 AM - - - N/A% 30.26 in - WNW 8.1 mph - N/A   Scattered Clouds
9:51 AM - - - N/A% 30.25 in - Variable 5.8 mph - N/A   Partly Cloudy
10:28 AM 42.8 °F 40.1 °F 30.2 °F 61% 30.26 in 10.0 mi Variable 4.6 mph - N/A   Mostly Cloudy
10:51 AM 42.1 °F 36.6 °F 28.9 °F 60% 30.31 in 10.0 mi NNW 9.2 mph - N/A   Mostly Cloudy
11:13 AM 42.8 °F 38.0 °F 28.4 °F 57% 30.27 in 10.0 mi WNW 8.1 mph - N/A   Mostly Cloudy
11:51 AM 44.1 °F 41.5 °F 28.9 °F 55% 30.30 in 10.0 mi Variable 4.6 mph - N/A   Scattered Clouds
12:51 PM 46.0 °F - 28.9 °F 51% 30.29 in 10.0 mi Calm Calm - N/A   Partly Cloudy
1:51 PM 48.0 °F - 27.0 °F 44% 30.30 in 10.0 mi North 8.1 mph - N/A   Partly Cloudy
2:51 PM 48.0 °F - 27.0 °F 44% 30.31 in 10.0 mi Variable 4.6 mph - N/A   Clear
3:51 PM 50.0 °F - 27.0 °F 41% 30.31 in 10.0 mi Variable 6.9 mph - N/A   Clear
4:51 PM 50.0 °F - 26.1 °F 39% 30.31 in 10.0 mi North 5.8 mph - N/A   Clear
5:51 PM 48.9 °F - 25.0 °F 39% 30.34 in 10.0 mi Variable 5.8 mph - N/A   Clear
6:51 PM 48.0 °F - 25.0 °F 41% 30.34 in 10.0 mi NNW 3.5 mph - N/A   Clear
7:51 PM 39.9 °F - 26.1 °F 58% 30.35 in 10.0 mi Calm Calm - N/A   Clear
8:51 PM 34.0 °F - 26.1 °F 73% 30.34 in 10.0 mi Calm Calm - N/A   Clear
9:51 PM 34.0 °F 31.0 °F 25.0 °F 70% 30.28 in 10.0 mi NNE 3.5 mph - N/A   Clear
10:51 PM 28.9 °F - 24.1 °F 82% 30.35 in 10.0 mi Calm Calm - N/A   Clear
11:51 PM 27.0 °F 21.6 °F 24.1 °F 89% 30.35 in 10.0 mi NE 4.6 mph - N/A   Clear